TimeCDT,TemperatureF,Dew PointF,Humidity,Sea Level PressureIn,VisibilityMPH,Wind Direction,Wind SpeedMPH,Gust SpeedMPH,PrecipitationIn,Events,Conditions,WindDirDegrees,DateUTC
12:53 AM,80.1,75.9,87,29.88,10.0,SE,3.5,-,N/A,,Clear,140,2012-09-07 05:53:00
1:53 AM,80.1,75.0,85,29.89,10.0,Calm,Calm,-,N/A,,Clear,0,2012-09-07 06:53:00
2:53 AM,79.0,75.0,88,29.89,10.0,Calm,Calm,-,N/A,,Clear,0,2012-09-07 07:53:00
3:53 AM,78.1,75.0,90,29.88,9.0,Calm,Calm,-,N/A,,Clear,0,2012-09-07 08:53:00
4:53 AM,75.9,75.0,97,29.88,7.0,Calm,Calm,-,N/A,,Partly Cloudy,0,2012-09-07 09:53:00
5:53 AM,75.9,73.9,94,29.89,6.0,Calm,Calm,-,N/A,,Clear,0,2012-09-07 10:53:00
6:53 AM,75.9,73.9,94,29.89,5.0,Calm,Calm,-,N/A,,Clear,0,2012-09-07 11:53:00
7:53 AM,79.0,75.9,90,29.91,5.0,Calm,Calm,-,N/A,,Clear,0,2012-09-07 12:53:00
8:53 AM,84.0,77.0,79,29.90,8.0,Calm,Calm,-,N/A,,Clear,0,2012-09-07 13:53:00
9:53 AM,88.0,75.9,67,29.91,10.0,NW,4.6,-,N/A,,Clear,310,2012-09-07 14:53:00
10:53 AM,91.9,75.0,58,29.91,10.0,North,5.8,-,N/A,,Clear,360,2012-09-07 15:53:00
11:53 AM,93.9,75.9,56,29.90,10.0,North,3.5,-,N/A,,Clear,10,2012-09-07 16:53:00
12:53 PM,91.9,73.9,55,29.88,10.0,Calm,Calm,-,N/A,,Mostly Cloudy,0,2012-09-07 17:53:00
1:53 PM,95.0,73.0,49,29.86,10.0,South,3.5,-,N/A,,Partly Cloudy,190,2012-09-07 18:53:00
2:53 PM,96.1,73.0,47,29.83,10.0,NE,5.8,-,N/A,,Partly Cloudy,50,2012-09-07 19:53:00
3:53 PM,95.0,72.0,47,29.82,10.0,East,5.8,-,N/A,,Partly Cloudy,80,2012-09-07 20:53:00
4:53 PM,95.0,72.0,47,29.80,10.0,Calm,Calm,-,N/A,,Partly Cloudy,0,2012-09-07 21:53:00
5:53 PM,93.0,72.0,50,29.79,10.0,ESE,5.8,-,N/A,,Clear,120,2012-09-07 22:53:00
6:53 PM,88.0,73.9,63,29.78,10.0,SSE,5.8,-,N/A,,Clear,150,2012-09-07 23:53:00
7:53 PM,84.9,73.0,67,29.79,10.0,SSE,4.6,-,N/A,,Clear,160,2012-09-08 00:53:00
8:53 PM,81.0,73.9,79,29.81,10.0,SSE,4.6,-,N/A,,Clear,160,2012-09-08 01:53:00
9:53 PM,79.0,73.9,84,29.82,10.0,SSE,4.6,-,N/A,,Clear,160,2012-09-08 02:53:00
10:53 PM,78.1,73.9,87,29.83,9.0,SE,4.6,-,N/A,,Partly Cloudy,140,2012-09-08 03:53:00
11:53 PM,77.0,73.9,90,29.83,9.0,SE,3.5,-,N/A,,Clear,140,2012-09-08 04:53:00